Torna al catalogo

NOAA 16 DEB

AttivoSSO
NORAD 41058·DEBRIS·🇺🇸 United States

Lanciato Sep 21, 2000 da Vandenberg Space Force Base

Loading…

Prossimi Passaggi (prossime 24 ore)

TLE

AggiornatoSource: Space-Track

Epoca: Sep 14, 2026, 09:24 UTC

1 41058U 00055R   26257.39191403  .00000612  00000-0  34923-3 0  9993
2 41058  98.5988 251.1948 0021731 250.9200 108.9620 14.13116696555536

Traccia NOAA 16 DEB in tempo reale con AllMySat

Download on the App Store